sat.trackr.live / text

‹ back to catalog

STARLINK-2170

NORAD 47753 · 2021-017AH

PAYLOAD ACTIVE UNKNOWN

§ Identity

Operator
Country
US
Launch date
2021-03-04
Launch site
AFETR
Launch vehicle
Mass (kg)
RCS (m²)

Purposes: comms

External: N2YO · Heavens-Above · Gunter

§ Orbital elements

Epoch: 2026-05-25T03:31:48.181152Z

Period
94.01 min
Inclination
53.1581°
Eccentricity
0.0001320
Mean motion
15.31673687 rev/d
Perigee alt
469.9 km
Apogee alt
471.7 km
Semi-major
6,849.0 km
B*
-1.0658e-4
RAAN
208.3019°
Arg perigee
93.7353°
Mean anomaly
266.3799°
Rev number
28,960

§ Raw data

STARLINK-21701 47753U 21017AH  26145.14708543 -.00003668  00000+0 -10658-3 0  99942 47753  53.1581 208.3019 0001320  93.7353 266.3799 15.31673687289604

JSON: /api/v1/satellites/47753 · /tle

For live sub-satellite position, see the globe view (requires WebGL).

§ Visibility from observer

Set your observer location to see the next 7 days of passes ≥ 10°. The values pass through the URL so the page stays shareable.

No JS? Fill the form by hand. The geolocation button needs JavaScript.